Date,TemperatureHighF,TemperatureAvgF,TemperatureLowF,DewpointHighF,DewpointAvgF,DewpointLowF,HumidityHigh,HumidityAvg,HumidityLow,PressureMaxIn,PressureMinIn,WindSpeedMaxMPH,WindSpeedAvgMPH,GustSpeedMaxMPH,PrecipitationSumIn
2013-3-1,59,47,36,40,34,28,95,66,34,30.12,30.02,22,3,22,0.00
2013-3-2,45,38,30,35,30,26,94,73,50,30.21,30.11,19,3,19,0.00
2013-3-3,57,40,25,36,29,24,94,69,31,30.25,30.06,12,1,13,0.00
2013-3-4,71,56,34,57,47,32,97,74,50,30.06,29.85,32,6,32,0.00
2013-3-5,73,64,51,62,50,30,88,65,32,30.17,29.83,25,5,25,0.00
2013-3-6,62,49,35,32,28,21,80,46,24,30.29,30.16,18,4,18,0.00
2013-3-7,66,48,31,41,34,29,93,63,28,30.31,30.16,10,1,10,0.00
2013-3-8,72,53,35,46,40,34,97,66,28,30.24,30.07,8,0,8,0.00
2013-3-9,70,60,47,58,53,44,92,79,65,30.09,29.87,19,2,19,0.00
2013-3-10,79,65,54,64,59,52,96,82,51,29.89,29.75,37,6,38,0.70
2013-3-11,58,49,43,53,42,36,97,79,45,29.99,29.85,21,4,21,1.50
2013-3-12,68,50,35,42,37,33,96,66,29,30.18,29.99,17,2,17,0.01
2013-3-13,66,52,39,40,32,20,92,52,18,30.35,30.17,24,4,24,0.00
2013-3-14,69,51,35,43,34,27,91,57,25,30.39,30.23,12,1,12,0.00
2013-3-15,76,58,40,52,44,38,96,64,28,30.25,30.03,23,2,23,0.00
2013-3-16,76,61,44,58,51,43,97,72,42,30.06,29.86,18,2,18,0.00
2013-3-17,78,66,53,65,58,51,97,79,47,29.89,29.72,19,3,21,0.02
2013-3-18,83,73,65,67,64,58,92,75,51,29.87,29.68,22,3,22,0.00
2013-3-19,77,63,50,60,48,40,84,60,34,29.98,29.86,19,3,19,0.00
2013-3-20,70,58,47,47,37,24,85,48,20,30.13,29.95,26,4,26,0.03
2013-3-21,67,55,44,47,36,27,76,52,26,30.00,29.78,16,1,17,0.00
2013-3-22,76,61,54,66,55,45,94,81,69,29.83,29.67,8,0,12,0.02
2013-3-23,70,67,63,67,66,62,97,95,86,29.74,29.50,5,0,20,0.08
2013-3-24,64,54,44,60,40,30,97,61,30,30.01,29.55,17,4,23,0.00
2013-3-25,58,46,34,32,26,18,82,48,24,30.24,29.99,20,4,22,0.00
2013-3-26,54,43,31,32,26,20,84,53,29,30.36,30.22,19,3,19,0.00
2013-3-27,64,46,29,38,30,26,92,60,25,30.39,30.20,11,0,11,0.00
2013-3-28,72,53,34,46,38,33,96,64,27,30.30,30.16,10,0,11,0.00
2013-3-29,76,59,41,52,46,39,97,67,35,30.25,30.10,16,1,16,0.00
2013-3-30,76,62,49,59,53,47,96,75,46,30.12,29.94,17,1,18,0.00
2013-3-31,74,63,54,65,59,52,98,89,68,29.97,29.86,31,1,33,0.01